ORBCOMM FM113

Last updated on Tue Sep 22 2026 00:03:23 GMT+0000 (Coordinated Universal Time)

1 41185U 15081G 26264.13534699 .00000189 00000+0 76102-4 0 9991 2 41185 46.9999 176.9262 0002257 291.8203 68.2443 14.58936400572945
UTC large
Height (km)
Speed (km/s)
/
Latitude / Longitude
Inclination (degrees)
Orbital Period (minutes)
Azimuth
Elevation
Range (km)
Doppler Factor

Next 0 passes for location: London (51.5072 / 0.1276)

No passes found over London.